Flag for Yemen Weather past 2 weeks in Ta'izz, Yemen

Now
86 °F

Passing clouds.


Feels Like: 83 °F
Forecast: 67 / 85 °F
Wind: No wind

Location: Taiz

Current Time: Sep 16, 2014 at 10:42:55 AM

Latest Report: Sep 16, 2014 at 10:00 AM


Visibility: N/A

Pressure: 30.07 "Hg

Humidity: 19%

Dew point: 39 °F

Location of Ta'izzLocation

Historic Weather in Ta'izz — Graph

°F

Ta'izz temperature yesterday

Maximum temperature yesterday: 84 °F (at 12:00 PM)
Minimum temperature yesterday: 64 °F (at 7:00 AM)
Average temperature yesterday: 77 °F

Past Weeks' High & Low Weather Summary

 TemperatureHumidityPressure
High93 °F (Sep 6, 11:00 AM)100% (Sep 7, 9:00 PM)30.12 "Hg (Sep 7, 9:00 PM)
Low61 °F (Sep 2, 10:00 PM)25% (Sep 16, 9:00 AM)29.83 "Hg (Sep 1, 5:00 PM)
Average74 °F67%30.01 "Hg
* Reported Sep 1 9:00 AM — Sep 16 9:00 AM, Ta'izz, Weather by CustomWeather, © 2014

Note: Actual official high and low records may vary slightly from our data, if they occured in-between our weather recording intervals... More about our weather records

Advertising

Ta'izz weather history for previous 24 hours

 ConditionsComfort  
Time TempWeatherWind HumidityBarometerVisibility
9:00 AM
Sep 16
82 °FPassing clouds.No wind25%30.07 "HgN/A
8:00 AM77 °FSunny.5 mph36%30.04 "Hg10 mi
7:00 AM70 °FSunny.8 mph69%30.04 "Hg10 mi
3:00 AM66 °FClear.5 mph68%29.98 "Hg10 mi
1:00 AM68 °FClear.2 mph78%30.01 "Hg10 mi
12:00 AM70 °FPassing clouds.6 mph78%30.04 "HgN/A
11:00 PM
Sep 15
70 °FPassing clouds.2 mph83%30.07 "HgN/A
10:00 PM72 °FPassing clouds.2 mph78%30.07 "HgN/A
9:00 PM72 °FClear.2 mph78%30.07 "Hg10 mi
8:00 PM73 °FPassing clouds.6 mph69%30.04 "HgN/A
7:00 PM75 °FPassing clouds.7 mph65%30.01 "HgN/A
6:00 PM77 °FPassing clouds.9 mph65%30.01 "HgN/A
5:00 PM81 °FScattered clouds.10 mph48%29.98 "HgN/A
4:00 PM82 °FPartly sunny.12 mph48%29.98 "HgN/A
3:00 PM84 °FScattered clouds.12 mph43%29.98 "HgN/A
2:00 PM84 °FPassing clouds.12 mph43%30.01 "HgN/A
1:00 PM84 °FPassing clouds.8 mph35%30.04 "HgN/A
12:00 PM84 °FPassing clouds.3 mph55%30.07 "HgN/A
11:00 AM82 °FPassing clouds.6 mph30%30.07 "HgN/A
10:00 AM81 °FSunny.No wind42%30.09 "Hg10 mi
Weather by CustomWeather, © 2014

See weather overviewHow to use our weather pages